OpenBCM V1.08-5-g2f4a (Linux)

Packet Radio Mailbox

IZ3LSV

[San Dona' di P. JN]

 Login: GUEST





  
I0OJJ  > KEPS     21.07.25 02:40l 343 Lines 16342 Bytes #123 (0) @ AMSAT
BID : ORB25202.1
Read: GUEST
Subj: 2Line Orbital Elements 25202.AMSAT
Path: IZ3LSV<IK6IHL<IK7NXU<HB9ON<HB9ON<PI8ZTM<IR0AAB<I0OJJ
Sent: 250721/0025z @:I0OJJ.ITA.EU [Rome] obcm1.08-10-g596e
From: I0OJJ @ I0OJJ.ITA.EU (Gustavo)
To:   KEPS @ AMSAT
X-Info: This message was generated automatically


QST de W1STR

AMSAT Orbital Elements for Amateur Satellites in TLE Format
From Orbital Analysis Office
New England Sci-Tech STEM Education Center
Natick, MA July 21, 2025
To all radio amateurs


These element sets describe the orbits of various satellites 
in use by the amateur radio community. For details see:
www.amsat.org/keplerian-elements-formats/

A daily update of element sets is available at:
www.amsat.org/tle/daily-bulletin.txt
or without bulletin text:
www.amsat.org/tle/dailytle.txt


AO-07
1 07530U 74089B   25201.51512595 -.00000032  00000-0  91085-4 0  9999
2 07530 101.9942 206.2158 0012531  45.4887  72.6559 12.53690215318959
UO-11
1 14781U 84021B   25201.85015059  .00001085  00000-0  11969-3 0  9992
2 14781  97.7569 167.4107 0007373 189.1138 170.9947 14.89479612228788
AO-27
1 22825U 93061C   25201.40682479  .00000061  00000-0  40523-4 0  9993
2 22825  98.7345 263.1616 0008290   1.5158 358.6048 14.30810104659557
FO-29
1 24278U 96046B   25201.41623356 -.00000032  00000-0  62484-5 0  9993
2 24278  98.5704  89.9284 0349043 236.7090 120.0167 13.53250651428291
NOAA-15
1 25338U 98030A   25201.83022163  .00000175  00000-0  89524-4 0  9991
2 25338  98.5338 225.9657 0009240 234.4940 125.5379 14.26999100414288
GO-32
1 25397U 98043D   25201.50619270  .00000053  00000-0  43093-4 0  9991
2 25397  98.9729 181.4848 0002385  90.0157 270.1294 14.24323114404116
ISS
1 25544U 98067A   25201.84759595  .00007915  00000-0  14663-3 0  9997
2 25544  51.6338 140.2277 0002187  99.1799 260.9438 15.49977817520381
NO-44
1 26931U 01043C   25201.86070708  .00000109  00000-0  71807-4 0  9992
2 26931  67.0512  21.1053 0006328 276.8914  83.1468 14.31750447243175
SO-50
1 27607U 02058C   25201.04956750  .00000800  00000-0  11689-3 0  9999
2 27607  64.5527  75.6051 0060704 325.2641  34.4506 14.81720443215438
CO-55
1 27844U 03031E   25201.50320504  .00000248  00000-0  12679-3 0  9993
2 27844  98.6761 209.2488 0010850  71.3945 288.8411 14.24021533144466
CO-57
1 27848U 03031J   25201.75196804  .00000211  00000-0  11233-3 0  9993
2 27848  98.6788 209.4690 0010799  86.0314 274.2099 14.23352873144274
RS-22
1 27939U 03042A   25201.86678039  .00000860  00000-0  14395-3 0  9995
2 27939  98.3313  12.3241 0010369 235.5723 261.4676 14.72429299166901
CO-58
1 28895U 05043F   25201.87345805  .00001304  00000-0  22017-3 0  9997
2 28895  98.2546 346.7533 0014750 171.3377 188.8086 14.71120894 53245
CO-65
1 32785U 08021C   25201.57221699  .00003522  00000-0  25404-3 0  9997
2 32785  97.7874 173.0535 0011842  77.4880 282.7670 15.04744917935240
CO-66
1 32791U 08021J   25201.54308459  .00009240  00000-0  43846-3 0  9994
2 32791  97.7293 182.5247 0004915  52.3600 307.8079 15.19487866936710
RS-30
1 32953U 08025A   25201.84864917  .00000037  00000-0  19306-3 0  9996
2 32953  82.5012 201.5134 0018380 318.9117  41.0578 12.43166414778669
NOAA-19
1 33591U 09005A   25201.82919570  .00000141  00000-0  99000-4 0  9994
2 33591  98.9954 266.7616 0012808 245.1074 114.8767 14.13391565847936
SRMSAT
1 37841U 11058D   25201.90215847  .00000377  00000-0  60682-4 0  9997
2 37841  19.9714 264.4934 0011737 158.5787 358.4244 14.11445605711176
ZACUBE-1
1 39417U 13066B   25201.43142292  .00004061  00000-0  35237-3 0  9991
2 39417  97.7817 158.2407 0041688 275.7411  83.9058 14.96966837631020
Delfi-N3xt
1 39428U 13066N   25201.36264236  .00003412  00000-0  34817-3 0  9990
2 39428  97.8320 118.5672 0082827 225.4629 133.9803 14.88783359625145
GOMX-1
1 39430U 13066Q   25201.86838922  .00001639  00000-0  25884-3 0  9990
2 39430  97.6800  57.9923 0133625  60.5928 300.8540 14.67775379621461
LO-74
1 39440U 13066AA  25201.57407223  .00003526  00000-0  35665-3 0  9990
2 39440  97.8496 145.8582 0062963  45.8891 314.7482 14.90167757627549
AO-73
1 39444U 13066AE  25201.83532251  .00004880  00000-0  36311-3 0  9996
2 39444  97.7848 163.9222 0040381 245.9156 113.7842 15.02787387630375
DTUSAT-2
1 40030U 14033W   25201.48399706  .00005566  00000-0  35926-3 0  9994
2 40030  98.0564 175.2984 0007463 284.3317  75.7081 15.08689016602566
EO-80
1 40032U 14033Y   25201.50210374  .00004220  00000-0  27297-3 0  9990
2 40032  98.0449 174.9158 0007488 211.5208 148.5572 15.08764886602548
LILACSAT-2
1 40908U 15049K   25201.88843710  .00009986  00000-0  25449-3 0  9998
2 40908  97.5051 223.2511 0009335  24.6505 335.5185 15.39707290544587
IO-86
1 40931U 15052B   25151.18580175  .00001241  00000-0  78118-4 0  9996
2 40931   6.0006  24.0987 0012733 338.8432  21.1169 14.78805930523047
Horyu-4
1 41340U 16012D   25201.17770538  .00017400  00000-0  44242-3 0  9991
2 41340  30.9949 218.6174 0006640 130.8533 229.2689 15.38323074519049
Lapan A3
1 41603U 16040E   25201.83524013  .00002669  00000-0  93952-4 0  9996
2 41603  97.1377 204.8305 0012672 117.9749 242.2776 15.30088153504090
CAS-2T
1 41847U 16066G   25201.43948694  .00000979  00000-0  14675-3 0  9991
2 41847  98.4187 275.5417 0346644  55.0328 308.2899 14.43598095456916
CAS-4B
1 42759U 17034B   25201.86482608  .00070025  00000-0  59222-3 0  9991
2 42759  43.0058  74.8836 0021929 224.1828 135.7287 15.68504904449074
CAS-4A
1 42761U 17034D   25201.85976308  .00078797  00000-0  61976-3 0  9991
2 42761  43.0095  71.5536 0023119 228.7221 131.1656 15.70169971449107
TechnoSat
1 42829U 17042E   25201.82047050  .00003424  00000-0  26549-3 0  9997
2 42829  97.3880   8.5502 0017215 137.9183 222.3368 15.01901142436913
AO-91
1 43017U 17073E   25201.41601802  .00007066  00000-0  35730-3 0  9995
2 43017  97.5210  71.1559 0171833  28.0613 332.9746 15.05323238415356
S-Net D
1 43186U 18014G   25201.59671163  .00003858  00000-0  22737-3 0  9992
2 43186  97.5589 104.0854 0010850  85.6041 274.6429 15.12134020408574
S-Net B
1 43187U 18014H   25201.47030476  .00004063  00000-0  23935-3 0  9996
2 43187  97.5593 103.9342 0011535  81.7638 278.4900 15.12112180408557
S-Net A
1 43188U 18014J   25201.59696155  .00003857  00000-0  22728-3 0  9991
2 43188  97.5602 104.2150 0011433  82.0694 278.1834 15.12139200408570
S-Net C
1 43189U 18014K   25201.67133994  .00004117  00000-0  24243-3 0  9992
2 43189  97.5616 104.3099 0012844  75.1032 285.1620 15.12109922407135
Ten-Koh
1 43677U 18084G   25201.47004945  .00001785  00000-0  14596-3 0  9990
2 43677  98.0845  15.3438 0008928 122.8715 237.3368 15.00721155366374
PO-101
1 43678U 18084H   25201.85788940  .00001755  00000-0  15208-3 0  9995
2 43678  98.1072  19.5646 0009093 137.8450 222.3473 14.98486948366567
QO-100
1 43700U 18090A   25201.56053097  .00000145  00000-0  00000-0 0  9997
2 43700   0.0180  78.8635 0002607  84.3600   2.9361  1.00273494 24353
MinXSS-2
1 43758U 18099A   25201.43770563  .00011710  00000-0  44703-3 0  9990
2 43758  97.5005 267.6300 0011404  20.3748 339.7943 15.26749874363208
AO-95
1 43770U 18099N   25201.13502915  .00006691  00000-0  33354-3 0  9997
2 43770  97.4893 258.7819 0011972  75.7169 284.5393 15.17815258362703
RANGE-A
1 43773U 18099R   25201.57423817  .00002778  00000-0  17750-3 0  9995
2 43773  97.4461 248.7890 0012555  57.2213 303.0224 15.09387792362403
MOVE-II
1 43780U 18099Y   25194.80194206  .15913345  26116-5  37118-3 0  9995
2 43780  97.4526 273.8800 0018736 270.1080  89.8075 16.44566529363241
SNUSat 2
1 43782U 18099AA  25201.56038229  .00005785  00000-0  31199-3 0  9997
2 43782  97.4576 255.6174 0012075  20.2606 339.9103 15.15089634362703
SnugLite
1 43784U 18099AC  25201.61764456  .00006838  00000-0  33791-3 0  9993
2 43784  97.4392 255.3197 0003902  39.3766 320.7751 15.18161228362867
ITASat 1
1 43786U 18099AE  25201.54623258  .00004776  00000-0  27084-3 0  9998
2 43786  97.4548 254.9910 0015678  68.6485 291.6418 15.13343438362659
EAGLET 1
1 43790U 18099AJ  25201.59162517  .00002554  00000-0  16371-3 0  9993
2 43790  97.4742 254.8545 0013228  54.5264 305.7198 15.09329183362255
ESEO
1 43792U 18099AL  25201.55428197  .00001648  00000-0  12755-3 0  9995
2 43792  97.4426 247.5276 0012926  25.9313 334.2558 15.02720786361979
CSIM
1 43793U 18099AM  25200.78179751  .00515798  00000-0  17430-2 0  9999
2 43793  97.4753 282.1073 0002231 269.0692  91.0324 15.88748556363994
JO-97
1 43803U 18099AX  25201.43327637  .00008845  00000-0  39497-3 0  9990
2 43803  97.4645 260.1591 0007198  15.6829 344.4628 15.21570998362981
Suomi 100
1 43804U 18099AY  25201.11972388  .00007203  00000-0  34678-3 0  9998
2 43804  97.4707 259.0260 0012109  14.7228 345.4357 15.19000934362853
ISAT
1 43879U 18111D   25201.48722175  .00015715  00000-0  52338-3 0  9992
2 43879  97.5923 116.8152 0010335  62.7789 297.4503 15.31163612359953
UWE-4
1 43880U 18111E   25201.57881336  .00012144  00000-0  46179-3 0  9998
2 43880  97.5869 115.0925 0013587  71.0353 289.2357 15.26845624359887
Sparrow
1 43881U 18111F   25201.50047908  .00016820  00000-0  53769-3 0  9999
2 43881  97.6073 119.8691 0009044  94.9193 265.3081 15.32478411360050
Prox-1
1 44339U 19036A   25201.53573715  .00008176  00000-0  10078-2 0  9998
2 44339  23.9952 152.6277 0007581 177.6947 182.3586 14.80593520324185
SONATE
1 44400U 19038Q   25185.47540524  .09032085  27445-5  31847-3 0  9995
2 44400  97.6609 216.4776 0012462 246.7970 113.2018 16.43248376333575
Taurus 1
1 44530U 19059C   25201.88186973  .00004088  00000-0  75159-3 0  9990
2 44530  98.6102 343.2547 0008112 263.3717  96.6562 14.66213189309998
Duchifat 3
1 44854U 19089C   25201.83672254  .00043610  00000-0  76314-3 0  9997
2 44854  36.9418  92.2677 0007147 292.7015  67.2987 15.49616436309349
TO-108
1 44881U 19093C   25201.84710277  .00000736  00000-0  90873-4 0  9990
2 44881  97.7912 276.6329 0015264  95.9824 264.3131 14.85667140302201
